Tracking 31027 objects as of 19-Jul-2025
HD Live streaming from Space Station
objects crossing your sky now

STARLINK-11507

Track STARLINK-11507 now!
10-day predictions
STARLINK-11507 is classified as:


NORAD ID: 62519
Int'l Code: 2025-004J
Perigee: 362.6 km
Apogee: 364.2 km
Inclination: 43.0 °
Period: 91.7 minutes
Semi major axis: 6734 km
RCS: Unknown
Launch date: January 8, 2025
Source: United States (US)
Launch site: AIR FORCE EASTERN TEST RANGE (AFETR)
Your satellite tracking list
FENGYUN 1C DEB
Track 1 satellite(s)




NASA's NSSDC Master Catalog

Two Line Element Set (TLE):
1 62519U 25004J   25199.61769612  .00151338  00000-0  11572-2 0  9997
2 62519  42.9978  41.7655 0001174 230.3719 129.7045 15.70929738 31148
Source of the keplerian elements: AFSPC